Location: Brede
(50.9167°N, 0.6000°E)
Time: 01:49:40
(UTC+00:00)

Cosmos 773 Rocket - Pass Details

Date: 08 August 2020
Orbit: 746 x 776 km, 74.1° (Epoch: 27 September)

Event Time Altitude Azimuth Distance (km) Brightness Sun altitude
Rises 00:58:51 0° 333° (NNW) 3,211 8.0 -21.9°
Reaches altitude 10° 01:01:14 10° 331° (NNW) 2,279 7.1 -21.8°
Maximum altitude 01:06:21 67° 250° (WSW) 810 3.9 -21.6°
Enters shadow 01:07:28 52° 193° (SSW) 931 4.0 -21.6°
